RYR48AP LZIB-LIRN

Flight info

Callsign RYR48AP
Flight time N/A
Altitude 36000
Route TOVKA DCT TISKO/N0434F370 DCT PETOV/N0434F360 DCT XAMIT/N0434F370 DCT SUXUB DCT ERIKA
Aircraft B738/M-SDE2E3FGHIRWXY/LB1

Departure

Time 2026-05-04 11:43
Airport M. R. Štefánik Airport (LZIB)

Arrival

Time N/A
Airport Naples International Airport (LIRN)
Time Latitude Longitude Altitude Speed Heading
2026-05-04 11:24 48.16832 17.19976 436 ft 0 kts 314°
2026-05-04 11:36 48.16822 17.19991 435 ft 2 kts 312°
2026-05-04 11:36 48.16812 17.20007 435 ft 2 kts 315°
2026-05-04 11:36 48.16800 17.20021 435 ft 2 kts 347°
2026-05-04 11:36 48.16785 17.20021 435 ft 2 kts 22°
2026-05-04 11:37 48.16778 17.20014 435 ft 1 kts 43°
2026-05-04 11:37 48.16785 17.20023 435 ft 4 kts 40°
2026-05-04 11:37 48.16798 17.20041 435 ft 0 kts 44°
2026-05-04 11:39 48.16822 17.20076 435 ft 8 kts 46°
2026-05-04 11:40 48.17180 17.20580 432 ft 10 kts 22°
2026-05-04 11:41 48.17231 17.20552 433 ft 8 kts 324°
2026-05-04 11:41 48.17303 17.20441 434 ft 19 kts 314°
2026-05-04 11:41 48.17393 17.20324 435 ft 15 kts 334°
2026-05-04 11:41 48.17490 17.20327 435 ft 13 kts 32°
2026-05-04 11:42 48.17530 17.20444 432 ft 13 kts 101°
2026-05-04 11:42 48.17501 17.20503 432 ft 0 kts 130°
2026-05-04 11:42 48.17474 17.20547 432 ft 29 kts 134°
2026-05-04 11:42 48.17150 17.21048 429 ft 100 kts 134°
2026-05-04 11:43 48.16518 17.22034 438 ft 156 kts 135°
2026-05-04 11:43 48.15705 17.23247 797 ft 174 kts 139°
2026-05-04 11:43 48.14843 17.24443 1685 ft 164 kts 143°
2026-05-04 11:43 48.13965 17.25546 2225 ft 173 kts 131°
2026-05-04 11:44 48.13224 17.27022 2608 ft 186 kts 134°
2026-05-04 11:44 48.12315 17.28514 2973 ft 202 kts 136°
2026-05-04 11:44 48.11537 17.30299 3497 ft 217 kts 111°
2026-05-04 11:44 48.11336 17.32571 4146 ft 227 kts 92°
2026-05-04 11:45 48.11673 17.34910 4760 ft 239 kts 65°
2026-05-04 11:45 48.12724 17.36854 5429 ft 245 kts 43°
2026-05-04 11:45 48.14205 17.38071 6034 ft 251 kts
2026-05-04 11:45 48.15923 17.37943 6711 ft 251 kts 345°
2026-05-04 11:46 48.17603 17.37031 7067 ft 266 kts 327°
2026-05-04 11:46 48.19151 17.35468 7523 ft 279 kts 322°
2026-05-04 11:46 48.20813 17.33787 8034 ft 292 kts 325°
2026-05-04 11:46 48.22507 17.32085 8728 ft 296 kts 318°
2026-05-04 11:47 48.23885 17.29882 9488 ft 295 kts 301°
2026-05-04 11:47 48.24784 17.27155 10241 ft 294 kts 285°
2026-05-04 11:47 48.25214 17.24107 10701 ft 306 kts 270°
2026-05-04 11:47 48.25191 17.20908 11190 ft 318 kts 264°
2026-05-04 11:48 48.25065 17.17525 11637 ft 333 kts 264°
2026-05-04 11:48 48.24938 17.13975 12263 ft 342 kts 264°
2026-05-04 11:48 48.24824 17.10421 13074 ft 346 kts 265°
2026-05-04 11:48 48.24714 17.06872 13911 ft 348 kts 265°
2026-05-04 11:49 48.24677 17.03227 14701 ft 353 kts 273°
2026-05-04 11:49 48.25181 16.99709 15522 ft 359 kts 286°
2026-05-04 11:49 48.26052 16.96211 16326 ft 362 kts 289°
2026-05-04 11:49 48.26830 16.92648 17059 ft 364 kts 277°
2026-05-04 11:50 48.26854 16.88867 17928 ft 361 kts 262°
2026-05-04 11:50 48.26466 16.85150 18569 ft 366 kts 257°
2026-05-04 11:50 48.25721 16.81505 19231 ft 369 kts 243°
2026-05-04 11:50 48.24252 16.78363 19923 ft 372 kts 227°
2026-05-04 11:51 48.22389 16.75632 20554 ft 377 kts 221°
2026-05-04 11:51 48.20247 16.73415 21155 ft 382 kts 206°
2026-05-04 11:51 48.17690 16.72254 21821 ft 386 kts 191°
2026-05-04 11:51 48.14997 16.71808 22365 ft 393 kts 183°
2026-05-04 11:52 48.12294 16.72166 22957 ft 399 kts 167°
2026-05-04 11:52 48.09714 16.73750 23557 ft 403 kts 154°
2026-05-04 11:52 48.07190 16.75555 24058 ft 408 kts 159°
2026-05-04 11:52 48.04465 16.76671 24590 ft 410 kts 176°
2026-05-04 11:53 48.01591 16.76446 25133 ft 411 kts 191°
2026-05-04 11:53 47.98831 16.75437 25628 ft 414 kts 198°
2026-05-04 11:53 47.96103 16.74072 26081 ft 418 kts 201°
2026-05-04 11:53 47.93365 16.72476 26561 ft 422 kts 203°
2026-05-04 11:55 47.73959 16.60751 29673 ft 445 kts 204°
2026-05-04 11:55 47.71500 16.59285 30148 ft 444 kts 204°
2026-05-04 11:56 47.68796 16.57678 30782 ft 441 kts 204°
2026-05-04 11:56 47.65614 16.55789 31372 ft 441 kts 204°
2026-05-04 11:56 47.62783 16.54111 31875 ft 441 kts 204°
2026-05-04 11:56 47.59924 16.52416 32400 ft 440 kts 204°
2026-05-04 11:57 47.57081 16.50735 32899 ft 440 kts 204°
2026-05-04 11:57 47.54263 16.49072 33369 ft 439 kts 204°
2026-05-04 11:57 47.51452 16.47415 33816 ft 439 kts 204°
2026-05-04 11:57 47.48610 16.45741 34273 ft 439 kts 204°
2026-05-04 11:58 47.45822 16.44101 34706 ft 438 kts 205°
2026-05-04 11:58 47.42997 16.42442 35123 ft 436 kts 205°
2026-05-04 11:58 47.40190 16.40795 35511 ft 435 kts 205°
2026-05-04 11:58 47.37373 16.39143 35868 ft 434 kts 205°
2026-05-04 11:59 47.34560 16.37641 36016 ft 439 kts 201°
2026-05-04 11:59 47.28697 16.35102 36020 ft 437 kts 199°
2026-05-04 12:00 47.22893 16.32695 36025 ft 435 kts 198°
2026-05-04 12:00 47.17082 16.30274 36020 ft 436 kts 198°
2026-05-04 12:01 47.11239 16.27836 36026 ft 437 kts 198°
2026-05-04 12:02 46.90853 16.19362 36029 ft 436 kts 198°
2026-05-04 12:03 46.85028 16.16950 36029 ft 436 kts 198°
2026-05-04 12:03 46.79207 16.14545 36030 ft 436 kts 198°
2026-05-04 12:04 46.73390 16.12146 36036 ft 436 kts 198°
2026-05-04 12:04 46.67578 16.09754 36036 ft 436 kts 198°
2026-05-04 12:05 46.61768 16.07369 36034 ft 436 kts 198°
2026-05-04 12:05 46.55942 16.04983 36038 ft 436 kts 198°
2026-05-04 12:06 46.50105 16.02597 36044 ft 437 kts 198°
2026-05-04 12:06 46.44304 16.00232 36045 ft 436 kts 198°
2026-05-04 12:07 46.38494 15.97868 36049 ft 435 kts 198°
2026-05-04 12:07 46.32677 15.95508 36051 ft 436 kts 198°
2026-05-04 12:08 46.26874 15.93158 36048 ft 437 kts 198°
2026-05-04 12:08 46.21030 15.90797 36052 ft 438 kts 198°
2026-05-04 12:09 46.15194 15.88444 36052 ft 436 kts 198°
2026-05-04 12:09 46.09333 15.86086 36057 ft 436 kts 198°
2026-05-04 12:10 46.03506 15.83746 36057 ft 436 kts 198°
2026-05-04 12:10 45.97695 15.81419 36054 ft 436 kts 198°
2026-05-04 12:11 45.91883 15.79095 36053 ft 436 kts 198°
2026-05-04 12:11 45.86037 15.76764 36057 ft 436 kts 198°
2026-05-04 12:12 45.80213 15.74446 36061 ft 436 kts 198°
2026-05-04 12:12 45.74394 15.72136 36062 ft 436 kts 198°
2026-05-04 12:14 45.51096 15.62935 36058 ft 436 kts 198°
2026-05-04 12:15 45.45257 15.60641 36058 ft 436 kts 198°
2026-05-04 12:15 45.39429 15.58357 36061 ft 436 kts 198°
2026-05-04 12:16 45.33565 15.56063 36069 ft 437 kts 198°
2026-05-04 12:16 45.27717 15.53781 36067 ft 436 kts 198°
2026-05-04 12:17 45.21880 15.51508 36075 ft 436 kts 198°
2026-05-04 12:17 45.16043 15.49239 36083 ft 435 kts 198°
2026-05-04 12:18 45.10225 15.46984 36097 ft 435 kts 199°
2026-05-04 12:18 45.04399 15.44730 36098 ft 435 kts 198°
2026-05-04 12:19 44.98563 15.42476 36109 ft 436 kts 198°
2026-05-04 12:19 44.92760 15.40238 36110 ft 435 kts 198°
2026-05-04 12:20 44.86950 15.38005 36114 ft 434 kts 198°
2026-05-04 12:20 44.81165 15.35786 36118 ft 434 kts 199°
2026-05-04 12:21 44.75362 15.33563 36118 ft 434 kts 198°
2026-05-04 12:21 44.69539 15.31337 36111 ft 434 kts 198°
2026-05-04 12:22 44.63715 15.29117 36112 ft 434 kts 198°
2026-05-04 12:22 44.57934 15.26917 36110 ft 435 kts 198°
2026-05-04 12:23 44.52099 15.24702 36115 ft 433 kts 198°
2026-05-04 12:23 44.46308 15.22509 36116 ft 433 kts 198°
2026-05-04 12:24 44.40525 15.20322 36111 ft 432 kts 198°
2026-05-04 12:24 44.34730 15.18134 36110 ft 432 kts 198°
2026-05-04 12:25 44.28931 15.15948 36101 ft 433 kts 198°
2026-05-04 12:25 44.23137 15.13770 36099 ft 433 kts 198°
2026-05-04 12:26 44.17378 15.11612 36100 ft 432 kts 198°
2026-05-04 12:26 44.11622 15.09458 36102 ft 431 kts 198°
2026-05-04 12:27 44.05910 15.07325 36097 ft 430 kts 198°
2026-05-04 12:27 44.00126 15.05168 36099 ft 430 kts 198°
2026-05-04 12:28 43.94383 15.03031 36098 ft 430 kts 198°
2026-05-04 12:28 43.88607 15.00886 36099 ft 430 kts 198°
2026-05-04 12:29 43.82845 14.98749 36093 ft 430 kts 198°
2026-05-04 12:29 43.77049 14.96608 36092 ft 430 kts 198°
2026-05-04 12:30 43.71323 14.94494 36091 ft 429 kts 198°
2026-05-04 12:30 43.65540 14.92362 36091 ft 430 kts 198°
2026-05-04 12:31 43.59796 14.90250 36092 ft 429 kts 198°
2026-05-04 12:31 43.54115 14.88166 36088 ft 430 kts 198°
2026-05-04 12:32 43.45591 14.85049 36089 ft 429 kts 198°
2026-05-04 12:33 43.40008 14.83010 36091 ft 429 kts 198°
2026-05-04 12:33 43.34367 14.80955 36093 ft 429 kts 198°
2026-05-04 12:34 43.28662 14.78631 36094 ft 427 kts 203°
2026-05-04 12:34 43.23145 14.75785 36091 ft 427 kts 204°
2026-05-04 12:35 43.17619 14.72897 36089 ft 426 kts 204°
2026-05-04 12:35 43.12103 14.70044 36089 ft 426 kts 204°
2026-05-04 12:36 43.06631 14.67236 36089 ft 426 kts 204°
2026-05-04 12:36 43.01131 14.64425 36091 ft 426 kts 204°
2026-05-04 12:37 42.95599 14.61606 36088 ft 425 kts 204°
2026-05-04 12:37 42.90055 14.58789 36085 ft 426 kts 204°
2026-05-04 12:38 42.84750 14.56100 36086 ft 427 kts 204°
2026-05-04 12:38 42.79354 14.53369 36084 ft 425 kts 204°
2026-05-04 12:39 42.73705 14.50517 36084 ft 427 kts 204°
2026-05-04 12:39 42.68188 14.47735 36080 ft 426 kts 204°
2026-05-04 12:40 42.62685 14.44966 36079 ft 425 kts 205°
2026-05-04 12:40 42.57127 14.42176 36081 ft 427 kts 205°
2026-05-04 12:41 42.51683 14.39445 36078 ft 426 kts 205°
2026-05-04 12:41 42.46112 14.36660 36076 ft 427 kts 205°
2026-05-04 12:42 42.40570 14.33895 36087 ft 427 kts 204°
2026-05-04 12:42 42.35016 14.31129 35591 ft 425 kts 204°
2026-05-04 12:42 42.32323 14.29789 35133 ft 422 kts 204°
2026-05-04 12:43 42.29856 14.28563 34720 ft 419 kts 204°
2026-05-04 12:43 42.26979 14.27135 34166 ft 417 kts 203°
2026-05-04 12:43 42.24272 14.25794 33643 ft 414 kts 204°
2026-05-04 12:43 42.21609 14.24476 33147 ft 411 kts 203°
2026-05-04 12:44 42.18959 14.23166 32658 ft 407 kts 204°
2026-05-04 12:44 42.16337 14.21867 32174 ft 403 kts 204°
2026-05-04 12:44 42.13768 14.20595 31694 ft 400 kts 204°
2026-05-04 12:44 42.11366 14.19408 31252 ft 398 kts 204°
2026-05-04 12:45 42.08733 14.18109 30757 ft 395 kts 204°
2026-05-04 12:45 42.06176 14.16851 30279 ft 392 kts 204°
2026-05-04 12:45 42.03647 14.15604 29795 ft 389 kts 204°
2026-05-04 12:45 42.01230 14.14408 29335 ft 386 kts 204°
2026-05-04 12:46 41.98700 14.13159 28855 ft 383 kts 203°
2026-05-04 12:46 41.96290 14.11976 28403 ft 380 kts 204°
2026-05-04 12:46 41.93965 14.10838 27965 ft 378 kts 203°